Погода в Кавалерском

Россия / Ростовская область     46°20′36″N   40°27′05″E
темп.,
°C
ветер,
м/с
пор.,
м/с
влажн.,
%
обл.,
%
осадки,
мм/ч
давл.,
гПа
погр.,
м
20 сентября, пн
пн2000:00+19ю51177100 0.2 1012809
03:00+17ююз61384100 1.4 1012547
06:00+17юз5128646 1.1 1011382
09:00+21юз68625 1.3 1012842
12:00+24зюз564326 1.3 10121890
15:00+23юз474499 1.3 1012837
18:00+22ююз4847100 0.0 1012312
21:00+19зсз335137 0.1 101446
21 сентября, вт
вт2100:00+17юз366399 0.0 1014136
03:00+16ююз357670 0.0 101398
06:00+15ююз3585100 0.0 1014110
09:00+17з4781100 0.2 1014444
12:00+15зсз2387100 1.8 1014196
15:00+14з3489100 5.4 1014429
18:00+14з248414 0.5 1015332
21:00+13зюз36911 0.5 1015132
22 сентября, ср
ср2200:00+12зюз358518 0.0 1015123
03:00+11з388882 0.0 1014213
06:00+10зсз367897 0.0 1015259
09:00+12зсз456013 0.0 1016971
12:00+15з564729 0.0 10151466
15:00+15з664639 0.0 10151551
18:00+14зсз35497 0.0 1015230
21:00+12ссв115422 0.0 101614
23 сентября, чт
чт2300:00+11юв12575 0.0 101516
03:00+10юв226020 0.0 101516
06:00+9вюв226462 0.0 101422
09:00+13вюв4549100 0.0 1014495
12:00+15вюв4444100 0.0 1013875
15:00+11в5670100 0.3 1013352
18:00+10всв4683100 0.6 1014303
21:00+10всв4790100 2.1 1013352
24 сентября, пт
пт2400:00+10св3590100 0.9 1012254
03:00+10с2395100 0.9 101292
06:00+11с2591100 0.0 1012274
09:00+12ссз3481100 0.0 1013339
12:00+14зсз226096 0.0 1014609
15:00+17юз334689 0.0 10141368
18:00+16зюз3555100 0.0 1014256
21:00+14з4755100 0.0 1016472